Home   Weather   Inglewood   Past weeks

Flag for USA Past Weather in Inglewood, California, USA — Yesterday and Last 2 Weeks

Now
66 °F

Sunny.


Feels Like: 66 °F
Forecast: 48 / 65 °F
Wind: 13 mph from West

Location: Hawthorne Municipal Airport

Current Time: Jan 17, 2017 at 1:47:22 pm

Latest Report: Jan 17, 2017 at 12:53 pm


Visibility: 10 mi

Pressure: 30.09 "Hg

Humidity: 40%

Dew Point: 41 °F

Location of InglewoodLocation

Past Weather in Inglewood — Graph

°F

Inglewood Temperature Yesterday

Maximum temperature yesterday: 63 °F (at 12:53 pm)
Minimum temperature yesterday: 52 °F (at 11:53 pm)
Average temperature yesterday: 57 °F

High & Low Weather Summary for the Past Weeks

 TemperatureHumidityPressure
High75 °F (Jan 8, 11:53 am)100% (Jan 4, 10:41 pm)30.22 "Hg (Jan 4, 10:41 pm)
Low47 °F (Jan 13, 6:53 am)26% (Jan 8, 2:53 pm)29.92 "Hg (Jan 12, 5:13 am)
Average57 °F81%30.07 "Hg
* Reported Jan 2 11:53 am — Jan 17 11:53 am, Inglewood, Weather by CustomWeather, © 2017

Note: Actual official high and low records may vary slightly from our data, if they occured in-between our weather recording intervals... More about our weather records

Advertising

Inglewood Weather History for the Previous 24 Hours

Scroll right to see more
 ConditionsComfort  
Time TempWeatherWind HumidityBarometerVisibility
11:53 am
Tue, Jan 17
65 °FSunny.6 mph32%30.09 "Hg10 mi
10:53 am62 °FSunny.5 mph39%30.12 "Hg10 mi
9:53 am58 °FSunny.6 mph56%30.13 "Hg10 mi
8:53 am54 °FSunny.5 mph57%30.13 "Hg10 mi
7:53 am51 °FSunny.No wind66%30.12 "Hg10 mi
6:53 am47 °FClear.No wind83%30.09 "Hg10 mi
5:53 am47 °FClear.No wind90%30.08 "Hg10 mi
4:53 am48 °FClear.No wind89%30.07 "Hg10 mi
3:53 am48 °FClear.No wind93%30.06 "Hg10 mi
2:53 am50 °FClear.No wind89%30.06 "Hg10 mi
1:53 am50 °FClear.No wind93%30.06 "Hg9 mi
12:53 am51 °FClear.No wind92%30.06 "Hg8 mi
11:53 pm
Mon, Jan 16
52 °FClear.No wind93%30.07 "Hg9 mi
10:53 pm53 °FClear.3 mph93%30.07 "Hg10 mi
9:53 pm55 °FClear.No wind90%30.07 "Hg10 mi
8:53 pm55 °FClear.No wind90%30.06 "Hg10 mi
7:53 pm56 °FClear.No wind87%30.05 "Hg10 mi
6:53 pm57 °FClear.3 mph87%30.05 "Hg10 mi
5:53 pm58 °FClear.6 mph78%30.04 "Hg10 mi
4:53 pm59 °FSunny.8 mph75%30.03 "Hg10 mi
3:53 pm61 °FSunny.10 mph70%30.03 "Hg10 mi
2:53 pm61 °FSunny.10 mph70%30.02 "Hg10 mi
1:53 pm62 °FSunny.9 mph65%30.03 "Hg10 mi
Weather by CustomWeather, © 2017

See weather overviewHow to use our weather pages